{"data":{"norad_id":63136,"intl_designator":"2025-043E","name":"STARLINK-11613 [DTC]","alt_names":[],"object_type":"PAYLOAD","status":"ACTIVE","operator":null,"country":"US","launch_date":"2025-03-03","launch_site_code":"AFETR","launch_vehicle":null,"mission":null,"orbit_class":"UNKNOWN","rcs_meters":null,"size_class":null,"mass_kg":null,"dimensions":null,"purposes":["comms"],"wikipedia_slug":null,"has_3d_model":false,"image_url":null,"decayed_at":null,"tle_current":{"epoch":"2026-05-25T03:35:56.399712Z","epoch_age_seconds":76235,"freshness":"FRESH","line1":"1 63136U 25043E   26145.14995833  .00161525  00000+0  12384-2 0  9992","line2":"2 63136  42.9992 150.1686 0004113 287.5615  72.4803 15.70825977 71492","mean_motion":15.70825977,"eccentricity":0.0004113,"inclination_deg":42.9992,"raan_deg":150.1686,"arg_perigee_deg":287.5615,"mean_anomaly_deg":72.4803,"bstar":0.0012384,"rev_number":7149,"period_min":91.671516837922,"perigee_km":353.76517157308,"apogee_km":359.30511287728,"semimajor_km":6734.6721422252,"source":"CELESTRAK","updated_at":"2026-05-25T13:38:19.914441Z"}}}